OPS 4682 DEB, 14048

Orbit data source: Space-Track

OPS 4682 DEB, 14048 is space debris in LEO originally from a launch on Sat, 03 Apr 1965 UTC launched from the Air Force Western Test Range (AFWTR). Debris objects in space refer to the collection of defunct objects orbiting the Earth. Examples of debris include non-operational satellites, rocket bodies, and fragments generated from explosions, collisions, or faulty payload assembly.

Loading next visibility...
Identifier
14048, 1965-027K
Orbit
LEO
Country
Flag of USUS
Related business
Manufacturer
Unknown
Mission
Spacecraft
Bus & Motor
Unknown
Mass
Unknown
Launch date (UTC)
1965-04-03 (61 years ago)
Launch vehicle
Unknown
Launch site
Air Force Western Test Range (AFWTR)
Object type
Payload
Rocket body
Debris
Shape & HBR
Unknown shape, 0.1 m
Radar Cross Section
Small (<0.1 m²)

Expand to show TLE details & history
Last TLE update: 13 hours ago

TLE from 13 hours ago
0 OPS 4682 DEB
1 14048U 65027K   26035.69640340  .00000357  00000-0  11759-2 0  9995
2 14048  90.2468  11.7763 0013956 271.1669 214.2123 12.99182091 36500
Epoch: 2026-02-04T16:42Z
TLE epoch observation values (Epoch: 2026-02-04T16:42:49.253Z)
Latitude
54.80118°
Longitude
166.55993°
Altitude
1,283.233 km
Speed
7.215 km/s
True Right ascension
12h 48m 29s
True Declination
54° 39' 01"
Sunlit
Object was in partial shadow at epoch
Visualization orbit readout
Latitude
Unknown
Longitude
Unknown
Altitude
Unknown
Speed
Unknown
Apparent Right ascension
Unknown
Apparent Declination
Unknown
Sunlit
N/A
Visualization observer readout
Local Sidereal Time
07:14:16
Azimuth
Unknown
Elevation
Unknown
Doppler factor
Unknown
Orbital elements
Apogee altitude
1,273.084 km
Perigee altitude
1,251.758 km
Semi-major axis
7,640.558 km
Eccentricity
0.0014
Inclination
90.2468°
RAAN
11.7763°
Arg. of periapsis
271.1669°
True anomaly
214.12251°
Mean anomaly
214.2123°
Eccentric anomaly
214.16739°
Mean motion
3.24979 °/min
Orbital period
110.78 mins
BSTAR
0.0011759
Loading maneuver chart data...
Computing Atmospheric mass density...
Loading historical data...
Loading historical data...
Loading historical data...
Loading historical data...
Loading historical data...
Loading historical data...
Loading historical data...

Documentation

Showing up to 5 results
|